Date_and_time,latitude,longitude,wind_speed,RelWindDirFrom,WindDirFrom,air_pressure,air_temperature,relative_humidity,Temp,platform_speed_wrt_ground,air_pressure_at_mean_sea_level,platform_orientation
2018-09-04 00:00,50.6304533333333,-96.98078,11.4,14.8,158,986.32,21.8,54,19.24,0.0,1012.02,338.6
2018-09-04 00:10,50.63045,-96.9807783333333,11.3,14.5,159,986.26,21.7,54,19.27,0.0,1011.95,338.6
2018-09-04 00:20,50.63045,-96.9807766666667,10.7,14.2,159,986.28,21.9,51,19.31,0.0,1011.96,338.6
2018-09-04 00:30,50.6304516666667,-96.9807766666667,10.8,13.9,156,986.23,21.9,53,19.33,0.0,1011.91,338.6
2018-09-04 00:40,50.6304516666667,-96.9807766666667,13.2,16.2,151,986.05,21.7,53,19.35,0.0,1011.75,338.6
2018-09-04 00:50,50.6304516666667,-96.980775,13.1,16.7,151,986.00,21.5,53,19.40,0.0,1011.72,338.6
2018-09-04 01:00,50.63045,-96.9807733333333,11.9,13.9,149,986.02,21.1,57,19.42,0.0,1011.75,345.5
2018-09-04 01:10,50.63045,-96.9807733333333,9.5,12.9,154,986.02,20.7,60,19.40,0.0,1011.77,345.5
2018-09-04 01:20,50.63045,-96.9807716666667,9.9,12.4,153,986.01,20.8,59,19.41,0.0,1011.76,345.5
2018-09-04 01:30,50.63045,-96.9807716666667,13.5,16.9,149,985.89,21.1,53,19.46,0.0,1011.62,345.5
2018-09-04 01:40,50.63045,-96.9807716666667,14.3,16.5,149,985.91,21.4,50,19.46,0.0,1011.64,345.5
2018-09-04 01:50,50.63045,-96.98077,15.5,18.8,150,985.90,21.6,46,19.46,0.0,1011.64,345.5
2018-09-04 02:00,50.63045,-96.98077,12.8,17.6,155,985.93,21.5,47,19.46,0.0,1011.67,345.5
2018-09-04 02:10,50.63045,-96.98077,9.5,12.7,159,985.96,20.9,55,19.43,0.0,1011.73,345.5
2018-09-04 02:20,50.6304383333333,-96.9807633333333,9.0,11.0,162,985.93,20.5,58,19.43,0.0,1011.71,345.5
2018-09-04 02:30,50.63044,-96.9807633333333,8.8,11.7,162,985.93,20.4,59,19.45,0.0,1011.73,345.5
2018-09-04 02:40,50.63044,-96.980765,9.6,12.7,163,985.97,20.4,58,19.46,0.0,1011.78,345.5
2018-09-04 02:50,50.6304383333333,-96.9807633333333,9.7,12.1,162,985.90,20.3,59,19.47,0.0,1011.72,345.5
2018-09-04 03:00,50.6304383333333,-96.980765,10.4,14.4,159,985.53,20.2,59,19.47,0.0,1011.37,124.8
2018-09-04 03:10,50.6304383333333,-96.980765,13.7,19.3,155,985.21,20.3,54,19.47,0.0,1011.02,124.8
2018-09-04 03:20,50.6304416666667,-96.980765,17.0,21.2,152,984.95,20.6,50,19.46,0.0,1010.74,124.8
2018-09-04 03:30,50.6304433333333,-96.9807666666667,16.2,19.9,153,985.11,20.6,50,19.46,0.0,1010.89,124.8
2018-09-04 03:40,50.6304433333333,-96.9807666666667,15.3,20.3,157,985.30,20.4,53,19.45,0.0,1011.09,124.8
2018-09-04 03:50,50.6304416666667,-96.9807666666667,16.0,20.5,157,985.12,20.3,54,19.42,0.0,1010.91,124.8
2018-09-04 04:00,50.6304316666667,-96.9807783333333,16.2,20.6,156,985.00,20.2,54,19.41,0.0,1010.82,194.5
2018-09-04 04:10,50.6304416666667,-96.9807716666667,14.9,18.1,163,985.14,20.0,57,19.39,0.0,1010.98,194.5
2018-09-04 04:20,50.63044,-96.9807666666667,13.7,17.4,162,984.98,19.9,60,19.38,0.0,1010.83,194.5
2018-09-04 04:30,50.6304366666667,-96.980765,15.9,21.4,162,984.71,19.9,59,19.38,0.0,1010.55,194.5
2018-09-04 04:40,50.6304366666667,-96.980765,19.1,24.8,164,984.49,20.2,56,19.37,0.0,1010.31,194.5
2018-09-04 04:50,50.63044,-96.980765,19.3,24.3,166,984.35,20.3,56,19.37,0.0,1010.17,194.5
2018-09-04 05:00,50.63044,-96.980765,18.7,23.7,165,984.17,20.3,58,19.36,0.0,1009.98,360.0
2018-09-04 05:10,50.6304416666667,-96.9807666666667,19.4,24.9,169,984.19,20.4,57,19.34,0.0,1010.00,360.0
2018-09-04 05:20,50.6304416666667,-96.9807666666667,21.0,24.8,169,983.90,20.7,56,19.31,0.0,1009.68,360.0
2018-09-04 05:30,50.6304416666667,-96.9807683333333,23.5,29.2,170,983.47,20.9,56,19.30,0.0,1009.23,360.0
2018-09-04 05:40,50.6304416666667,-96.98077,24.6,34.6,172,983.01,21.0,58,19.30,0.0,1008.76,360.0
2018-09-04 05:50,50.6304416666667,-96.98077,25.6,32.9,172,982.71,21.1,58,19.29,0.0,1008.46,360.0
2018-09-04 06:00,50.6304433333333,-96.9807683333333,24.4,30.6,175,982.90,21.0,59,19.27,0.0,1008.67,90.0
2018-09-04 06:10,50.6304333333333,-96.9807483333333,22.8,29.4,177,983.25,21.0,60,19.26,0.0,1009.03,90.0
2018-09-04 06:20,50.6304466666667,-96.9807683333333,20.6,27.9,182,983.27,21.0,61,19.24,0.0,1009.05,90.0
2018-09-04 06:30,50.6304583333333,-96.9807633333333,21.1,31.5,187,983.39,20.9,63,19.23,0.0,1009.16,90.0
2018-09-04 06:40,50.630455,-96.9807666666667,19.2,26.2,189,983.67,20.8,64,19.23,0.0,1009.45,90.0
2018-09-04 06:50,50.63045,-96.9807666666667,19.0,26.5,190,984.01,20.3,67,19.23,0.0,1009.83,90.0
2018-09-04 07:00,50.6304483333333,-96.980765,16.1,24.1,191,984.49,19.8,72,19.23,0.0,1010.33,41.2
2018-09-04 07:10,50.6304466666667,-96.9807616666667,15.6,23.0,190,984.54,19.3,78,19.23,0.0,1010.39,41.2
2018-09-04 07:20,50.6304383333333,-96.9807483333333,14.5,19.1,196,984.31,18.9,84,19.22,0.0,1010.16,41.2
2018-09-04 07:30,50.6304583333333,-96.9807666666667,16.5,21.4,195,984.22,18.6,91,19.21,0.0,1010.09,41.2
2018-09-04 07:40,50.630445,-96.9807566666667,18.2,26.5,201,984.30,18.8,94,19.20,0.0,1010.16,41.2
2018-09-04 07:50,50.63045,-96.980765,18.4,28.1,209,984.00,19.0,91,19.20,0.0,1009.84,41.2
2018-09-04 08:00,50.63045,-96.9807666666667,16.3,23.5,211,983.66,19.0,87,19.18,0.0,1009.49,360.0
2018-09-04 08:10,50.6304483333333,-96.980765,12.7,17.6,206,983.15,19.0,78,19.17,0.0,1008.97,360.0
2018-09-04 08:20,50.63045,-96.980765,12.3,15.8,188,982.46,19.6,70,19.18,0.0,1008.23,360.0
2018-09-04 08:30,50.63045,-96.9807633333333,12.1,14.5,170,982.05,19.2,77,19.20,0.0,1007.84,360.0
2018-09-04 08:40,50.63045,-96.9807666666667,8.2,14.3,167,981.91,18.7,83,19.20,0.0,1007.73,360.0
2018-09-04 08:50,50.63045,-96.9807683333333,13.4,20.8,169,981.95,18.6,86,19.22,0.0,1007.80,360.0
2018-09-04 09:00,50.63045,-96.9807666666667,21.1,26.1,172,981.84,18.3,93,19.22,0.0,1007.73,360.0
2018-09-04 09:10,50.6304516666667,-96.9807683333333,17.1,21.9,185,982.06,18.5,83,19.22,0.0,1007.96,360.0
2018-09-04 09:20,50.63045,-96.9807666666667,18.4,22.9,181,981.78,18.9,79,19.21,0.0,1007.67,360.0
2018-09-04 09:30,50.63045,-96.9807683333333,18.2,24.1,180,981.59,19.0,79,19.21,0.0,1007.46,360.0
2018-09-04 09:40,50.63045,-96.9807683333333,17.7,21.3,167,981.86,18.2,91,19.20,0.0,1007.77,360.0
2018-09-04 09:50,50.63045,-96.9807683333333,19.8,25.7,168,982.31,17.7,98,19.19,0.0,1008.26,360.0
2018-09-04 10:00,50.6304483333333,-96.9807666666667,20.2,24.6,171,982.30,17.5,100,19.17,0.0,1008.25,0.0
2018-09-04 10:10,50.6304483333333,-96.9807666666667,18.9,22.8,173,982.33,18.0,90,19.16,0.0,1008.23,0.0
2018-09-04 10:20,50.6304333333333,-96.9807616666667,16.3,20.4,175,982.56,18.3,88,19.15,0.0,1008.47,0.0
2018-09-04 10:30,50.630435,-96.9807733333333,14.6,20.9,181,982.70,18.2,89,19.14,0.0,1008.64,0.0
2018-09-04 10:40,50.6304333333333,-96.98077,9.4,12.9,198,983.05,18.1,91,19.14,0.0,1009.01,0.0
2018-09-04 10:50,50.630435,-96.980795,10.2,13.4,191,983.01,18.0,94,19.14,0.0,1008.99,0.0
2018-09-04 11:00,50.6304316666667,-96.9807683333333,8.7,12.4,208,983.36,18.0,95,19.13,0.0,1009.34,360.0
2018-09-04 11:10,50.6304333333333,-96.9807683333333,8.1,11.5,202,983.58,17.9,98,19.13,0.0,1009.55,360.0
2018-09-04 11:20,50.63044,-96.9807716666667,9.7,15.4,212,983.76,17.8,99,19.12,0.0,1009.73,360.0
2018-09-04 11:30,50.6304133333333,-96.9807616666667,9.1,12.6,218,983.75,17.8,99,19.11,0.0,1009.76,360.0
2018-09-04 11:40,50.6304333333333,-96.9807666666667,9.9,14.0,202,983.57,17.7,100,19.11,0.0,1009.60,360.0
2018-09-04 11:50,50.630435,-96.980755,9.0,13.4,209,983.66,17.8,100,19.11,0.0,1009.70,360.0
2018-09-04 12:00,50.6304383333333,-96.9807583333333,7.2,10.4,219,983.84,17.8,100,19.11,0.0,1009.86,165.5
2018-09-04 12:10,50.6304383333333,-96.980755,7.5,9.5,206,983.80,17.6,100,19.10,0.0,1009.82,165.5
2018-09-04 12:20,50.6304383333333,-96.9807566666667,7.2,9.3,207,983.85,17.6,100,19.09,0.0,1009.88,165.5
2018-09-04 12:30,50.63044,-96.9807583333333,7.3,11.0,213,983.94,17.6,100,19.09,0.0,1009.97,165.5
2018-09-04 12:40,50.6304416666667,-96.9807583333333,8.3,12.1,224,984.03,17.7,100,19.10,0.0,1010.06,165.5
2018-09-04 12:50,50.6304416666667,-96.9807583333333,9.2,12.5,232,984.18,17.7,97,19.10,0.0,1010.22,165.5
2018-09-04 13:00,50.6304433333333,-96.9807583333333,10.1,13.1,234,984.39,17.9,89,19.09,0.0,1010.42,167.4
2018-09-04 13:10,50.630445,-96.9807583333333,9.2,13.3,238,984.49,17.8,86,19.09,0.0,1010.54,167.4
2018-09-04 13:20,50.6304433333333,-96.98076,9.3,14.9,247,984.64,17.6,78,19.08,0.0,1010.70,167.4
2018-09-04 13:30,50.6304766666667,-96.980785,9.1,13.3,243,984.95,17.4,67,19.08,0.0,1011.04,167.4
2018-09-04 13:40,50.6304516666667,-96.9807666666667,9.3,13.3,248,985.25,17.0,64,19.08,0.0,1011.35,167.4
2018-09-04 13:50,50.6304466666667,-96.9807716666667,9.6,14.3,256,985.36,16.7,63,19.07,0.0,1011.49,167.4
2018-09-04 14:00,50.630445,-96.9807683333333,9.1,14.6,263,985.49,16.4,64,19.06,0.0,1011.64,38.0
2018-09-04 14:10,50.6304466666667,-96.9807683333333,10.2,18.3,268,985.39,16.1,65,19.06,0.0,1011.55,38.0
2018-09-04 14:20,50.6304333333333,-96.98075,7.9,14.4,279,985.42,15.9,67,19.06,0.0,1011.59,38.0
2018-09-04 14:30,50.6304383333333,-96.9807583333333,10.1,16.7,282,985.41,15.7,68,19.06,0.0,1011.59,38.0
2018-09-04 14:40,50.6304383333333,-96.98076,8.1,14.6,288,985.52,15.9,67,19.05,0.0,1011.68,38.0
2018-09-04 14:50,50.6304366666667,-96.98076,9.0,15.3,281,985.54,16.1,67,19.05,0.0,1011.69,38.0
2018-09-04 15:00,50.6304366666667,-96.98076,10.6,16.8,288,985.55,16.2,67,19.05,0.0,1011.69,360.0
2018-09-04 15:10,50.6304366666667,-96.9807616666667,9.9,20.2,292,985.75,16.4,66,19.05,0.0,1011.90,360.0
2018-09-04 15:20,50.6304366666667,-96.98076,10.0,16.8,287,985.99,16.6,66,19.05,0.0,1012.15,360.0
2018-09-04 15:30,50.6304366666667,-96.98076,10.6,18.2,296,986.19,16.8,65,19.05,0.0,1012.37,360.0
2018-09-04 15:40,50.6304333333333,-96.9807816666667,10.6,18.3,281,986.73,16.7,65,19.05,0.0,1012.94,360.0
2018-09-04 15:50,50.6304333333333,-96.9807733333333,11.3,17.4,300,987.04,16.5,66,19.06,0.0,1013.28,360.0
2018-09-04 16:00,50.630435,-96.9807666666667,9.1,14.9,302,987.39,16.3,67,19.06,0.0,1013.66,228.3
2018-09-04 16:10,50.6304366666667,-96.9807633333333,9.5,15.0,301,987.44,16.4,67,19.05,0.0,1013.72,228.3
2018-09-04 16:20,50.630435,-96.9807633333333,10.1,17.6,298,987.50,16.4,65,19.05,0.0,1013.79,228.3
2018-09-04 16:30,50.630395,-96.9807716666667,10.9,19.0,300,987.59,16.5,65,19.05,0.0,1013.87,228.3
2018-09-04 16:40,50.6304416666667,-96.98079,12.4,19.0,297,987.65,16.5,64,19.05,0.0,1013.92,228.3
2018-09-04 16:50,50.6304466666667,-96.98078,10.0,18.3,306,987.89,16.6,64,19.05,0.0,1014.16,228.3
2018-09-04 17:00,50.6304433333333,-96.9807766666667,10.0,15.8,301,987.98,16.7,63,19.05,0.0,1014.24,270.0
2018-09-04 17:10,50.6304416666667,-96.9807783333333,10.7,20.1,283,988.26,16.7,63,19.05,0.0,1014.52,270.0
2018-09-04 17:20,50.6304416666667,-96.9807766666667,9.9,17.7,299,988.32,16.8,62,19.05,0.0,1014.56,270.0
2018-09-04 17:30,50.630435,-96.98076,10.9,17.4,296,988.35,17.0,61,19.05,0.0,1014.59,270.0
2018-09-04 17:40,50.6304366666667,-96.9807666666667,9.2,15.7,286,988.41,17.1,60,19.06,0.0,1014.65,270.0
2018-09-04 17:50,50.6304366666667,-96.98077,10.9,16.6,307,988.48,17.4,58,19.06,0.0,1014.73,270.0
2018-09-04 18:00,50.6304366666667,-96.98077,11.1,18.4,299,988.50,17.5,55,19.07,0.0,1014.73,270.0
2018-09-04 18:10,50.6304383333333,-96.9807683333333,11.0,18.0,313,988.53,17.6,56,19.08,0.0,1014.76,270.0
2018-09-04 18:20,50.6304183333333,-96.9807666666667,9.8,14.7,322,988.67,17.5,58,19.08,0.0,1014.90,270.0
2018-09-04 18:30,50.6304416666667,-96.9807833333333,10.6,16.1,301,988.69,17.5,57,19.08,0.0,1014.92,270.0
2018-09-04 18:40,50.6304383333333,-96.98078,8.3,16.5,296,988.77,17.8,54,19.09,0.0,1014.99,270.0
2018-09-04 18:50,50.6304383333333,-96.9807733333333,10.9,17.3,305,988.82,17.9,54,19.09,0.0,1015.03,270.0
2018-09-04 19:00,50.630435,-96.98078,9.0,17.1,287,989.14,17.8,55,19.09,0.0,1015.37,270.0
2018-09-04 19:10,50.63043,-96.9807733333333,9.8,16.9,280,989.21,17.9,53,19.09,0.0,1015.43,270.0
2018-09-04 19:20,50.6304183333333,-96.98078,10.2,16.5,303,989.28,17.6,54,19.08,0.0,1015.51,270.0
2018-09-04 19:30,50.6304233333333,-96.9807783333333,9.9,18.3,297,989.46,17.7,50,19.07,0.0,1015.67,270.0
2018-09-04 19:40,50.6304266666667,-96.980775,10.0,17.1,304,989.57,17.7,49,19.09,0.0,1015.78,270.0
2018-09-04 19:50,50.63043,-96.9807716666667,8.2,16.6,300,989.71,17.7,50,19.10,0.0,1015.91,270.0
2018-09-04 20:00,50.63043,-96.9807733333333,9.5,15.0,277,989.92,17.6,50,19.11,0.0,1016.13,161.1
2018-09-04 20:10,50.6304316666667,-96.9807716666667,9.3,16.4,292,989.86,17.5,51,19.11,0.0,1016.08,161.1
2018-09-04 20:20,50.6304333333333,-96.980775,11.2,19.6,289,989.90,17.6,49,19.12,0.0,1016.11,161.1
2018-09-04 20:30,50.6304333333333,-96.980775,10.6,17.8,281,990.13,17.3,49,19.13,0.0,1016.35,161.1
2018-09-04 20:40,50.6304333333333,-96.9807733333333,9.8,17.4,281,990.19,17.3,50,19.14,0.0,1016.41,161.1
2018-09-04 20:50,50.6304333333333,-96.9807733333333,8.0,14.2,278,990.36,17.4,50,19.15,0.0,1016.58,161.1
2018-09-04 21:00,50.6304366666667,-96.9807883333333,9.1,15.1,273,990.38,17.1,50,19.16,0.0,1016.61,270.0
2018-09-04 21:10,50.6304366666667,-96.9807716666667,9.3,17.3,289,990.32,17.2,49,19.17,0.0,1016.56,270.0
2018-09-04 21:20,50.63044,-96.9807633333333,9.9,16.2,292,990.40,17.3,47,19.18,0.0,1016.63,270.0
2018-09-04 21:30,50.63044,-96.9807666666667,9.7,15.8,306,990.54,17.0,49,19.20,0.0,1016.79,270.0
2018-09-04 21:40,50.6304383333333,-96.9807633333333,9.9,16.3,302,990.52,17.0,49,19.20,0.0,1016.77,270.0
2018-09-04 21:50,50.6304383333333,-96.9807633333333,9.6,14.5,309,990.54,17.0,50,19.20,0.0,1016.80,270.0
2018-09-04 22:00,50.6304366666667,-96.980765,8.5,14.4,315,990.67,16.9,50,19.20,0.0,1016.94,90.0
2018-09-04 22:10,50.6304366666667,-96.9807666666667,9.0,13.4,312,990.69,16.9,50,19.20,0.0,1016.96,90.0
2018-09-04 22:20,50.63044,-96.9807666666667,8.3,13.6,294,990.82,16.8,50,19.19,0.0,1017.11,90.0
2018-09-04 22:30,50.6304383333333,-96.9807716666667,8.8,15.0,297,990.83,16.7,49,19.18,0.0,1017.12,90.0
2018-09-04 22:40,50.6304233333333,-96.9807666666667,9.5,14.9,300,990.88,17.0,49,19.18,0.0,1017.16,90.0
2018-09-04 22:50,50.6304266666667,-96.9807633333333,8.5,15.0,296,991.05,16.8,50,19.17,0.0,1017.35,90.0
2018-09-04 23:00,50.63043,-96.9807616666667,8.0,14.1,313,991.10,16.7,50,19.17,0.0,1017.40,90.0
2018-09-04 23:10,50.6304333333333,-96.9807633333333,8.6,12.8,321,991.11,16.9,50,19.17,0.0,1017.40,90.0
2018-09-04 23:20,50.6304333333333,-96.980765,8.2,13.7,311,991.19,17.1,48,19.17,0.0,1017.49,90.0
2018-09-04 23:30,50.6304333333333,-96.9807666666667,9.4,14.5,306,991.19,16.9,47,19.16,0.0,1017.50,90.0
